This is the latest recevied weather packets stored in our database for station/object JO1YDG-13. If no packets are shown the sender has not sent any weather packets the latest 10 day(s).
| Time | Temp. | Humidity | Pressure | Rain* | Wind** | Luminosity | Snow |
|---|---|---|---|---|---|---|---|
| 1777954930 | 23.89° C | 22% | 990 hPa | 0 mm | - | - | - |
| 1777954630 | 24.44° C | 22% | 990 hPa | 0 mm | - | - | - |
| 1777954330 | 24.44° C | 21% | 990 hPa | 0 mm | - | - | - |
| 1777954031 | 23.89° C | 22% | 990 hPa | 0 mm | - | - | - |
| 1777953730 | 23.89° C | 23% | 990.1 hPa | 0 mm | - | - | - |
| 1777953430 | 23.33° C | 23% | 990.2 hPa | 0 mm | - | - | - |
| 1777953131 | 23.33° C | 23% | 990.2 hPa | 0 mm | - | - | - |
| 1777952831 | 22.78° C | 23% | 990.3 hPa | 0 mm | - | - | - |
| 1777952531 | 23.33° C | 22% | 990.3 hPa | 0 mm | - | - | - |
| 1777952230 | 23.33° C | 22% | 990.4 hPa | 0 mm | - | - | - |
| 1777951930 | 23.33° C | 22% | 990.4 hPa | 0 mm | - | - | - |
| 1777951630 | 23.33° C | 23% | 990.5 hPa | 0 mm | - | - | - |
| 1777951330 | 23.33° C | 23% | 990.5 hPa | 0 mm | - | - | - |
| 1777951030 | 22.78° C | 25% | 990.5 hPa | 0 mm | - | - | - |
| 1777950730 | 22.78° C | 23% | 990.6 hPa | 0 mm | - | - | - |
| 1777950429 | 22.78° C | 22% | 990.6 hPa | 0 mm | - | - | - |
| 1777950129 | 22.78° C | 21% | 990.7 hPa | 0 mm | - | - | - |
| 1777949829 | 22.22° C | 22% | 990.7 hPa | 0 mm | - | - | - |
| 1777949531 | 22.22° C | 22% | 990.7 hPa | 0 mm | - | - | - |
| 1777949231 | 21.67° C | 22% | 990.7 hPa | 0 mm | - | - | - |
| 1777948931 | 21.67° C | 26% | 990.7 hPa | 0 mm | - | - | - |
| 1777948630 | 21.67° C | 24% | 990.9 hPa | 0 mm | - | - | - |
| 1777948330 | 21.67° C | 23% | 990.9 hPa | 0 mm | - | - | - |
| 1777948030 | 22.22° C | 23% | 991 hPa | 0 mm | - | - | - |
| 1777947730 | 21.67° C | 25% | 991.1 hPa | 0 mm | - | - | - |
* Rain latest hour (hover to see other rain measurements)
** Current wind speed in m/s (hover to see current wind gust speed)